Regional Weather Roundup
Issued by NWS Newport/Morehead, NC

Current Version | Previous Version | Graphics & Text | Print | Product List | Glossary On
Versions: 1 2 3 4 5 6 7 8 9 10 11 12 13 14 15 16 17 18 19 20 21 22 23 24 25 26 27 28 29 30 31 32 33 34 35 36 37 38 39 40 41 42 43 44 45 46 47 48 49 50
000 ASUS42 KMHX 191825 RWRMHX WEATHER ROUNDUP FOR EASTERN NORTH CAROLINA NATIONAL WEATHER SERVICE NEWPORT/MOREHEAD CITY NC 200 PM EDT THU APR 19 2018 NOTE: "FAIR" INDICATES FEW OR NO CLOUDS BELOW 12,000 FEET WITH NO SIGNIFICANT WEATHER AND/OR OBSTRUCTIONS TO VISIBILITY NCZ015>017-031-032-045>047-102-103-191900- NORTH COAST CITY SKY/WX TMP DP RH WIND PRES REMARKS EDENTON FAIR 78 52 41 NW17G24 29.78R ELIZABETH CITY PTSUNNY 75 52 44 NW15G21 29.76R KITTY HAWK FAIR 61 48 62 CALM 29.76R MANTEO FAIR 61 50 67 E9 29.79R $$ NCZ045>047-081-094-103-104-191900- CENTRAL COAST CITY SKY/WX TMP DP RH WIND PRES REMARKS FRISCO FAIR 70 61 73 SW16G30 29.77S $$ NCZ095-097-098-100-101-191900- SOUTHERN COAST CITY SKY/WX TMP DP RH WIND PRES REMARKS BEAUFORT FAIR 70 61 73 SW24G33 29.78S CEDAR ISLAND NOT AVBL JACKSONVILLE FAIR 84 53 34 SW21G30 29.76F PINEY ISLAND NOT AVBL WILMINGTON FAIR 84 52 33 W29G39 29.80S $$ NCZ011>013-027>030-043-044-078>080-089-090>093-098-191900- COASTAL PLAIN CITY SKY/WX TMP DP RH WIND PRES REMARKS AHOSKIE PTSUNNY 73 50 44 NW3 29.78R CLINTON FAIR 80 56 43 W15G21 29.80S ELIZABETHTOWN FAIR 81 49 32 MISG 29.81S GOLDSBORO FAIR 81 55 41 NW15G29 29.77R GREENVILLE FAIR 77 52 41 N12 29.80S HAVELOCK MOSUNNY 81 62 52 SW16G25 29.77S KENANSVILLE PTSUNNY 82 55 39 W14G23 29.79R KINSTON PTSUNNY 81 54 39 W10G18 29.78S NEW BERN PTSUNNY 81 58 45 W16 29.77R RICHLANDS FAIR 82 57 42 SW15G22 29.78S ROCKY MOUNT FAIR 77 51 40 NW15G24 29.78F WASHINGTON CLOUDY 78 52 41 N10 29.77R WHITEVILLE FAIR 82 52 35 SW10G23 29.82S $$ AMZ130-135-150-152-154-156-158-170-250-252-270-ANZ085-086-088-633-658-670-191900- MARINE OBSERVATIONS STATION/POSITION TIME TEMP WIND PRES WAVE SWELL AIR SEA DIR/SP/G HT/PER HT/PER (UTC) (F) (DEG/KT/KT) (MB) (FT/S) (FT/S) CHESAPEAKE LIGHT NOT AVBL 64 E VA BEACH 1750 52 51 310/ 8/ 10 1008.7 5/ 8 5/ 8 DUCK 1800 52 49 40/ 6/ 9 1007.5 2 E DUCK 1800 50 N/A 2/15 2/15 OREGON INLET 1800 56 64 30/ 9/ 12 1008.2 13E OREGON INLT 1748 53 N/A 4/ 8 3/ 8 HATTERAS CG 1800 67 62 220/ 14/ 21 1008.1 DIAMOND BUOY 1810 68 68 230/ 25/ 31 1008.7 CAPE LOOKOUT 1800 220/ 18/ 24 1009.0 BEAUFORT LAB 1800 67 62 220/ 14/ 20 1008.6 30 SE NEW RVR IN 1808 67 66 220/ 19/ 25 1009.7 30 SE NEW RVR IN 1800 66 N/A 8/ 7 2/11 27 SE WRIGHTSVLE 1808 66 65 210/ 23/ 33 1011.0 5 SE WRIGHTSVLE 1808 65 61 220/ 17/ 23 1009.5 225 S CAPE HAT 1810 73 72 220/ 17/ 23 1016.0 41 SE CHARLESTON 1810 68 67 220/ 21/ 25 1013.9 $$

USA.gov is the U.S. government's official web portal to all federal, state and local government web resources and services.